| time (UTC) | temp F | wind direction | speed MPH | gust MPH | rain 1hr in | rain 24hr in | rain mn in | humidity % | barometer mb |
| 20260831215326 | 91 | 245 | 6.0 | 12.0 | 0.00 | 0.00 | 0.00 | 24 | 1012.3 |
| 20260831214842 | 92 | 222 | 7.0 | 12.0 | 0.00 | 0.00 | 0.00 | 23 | 1012.3 |
| 20260831214313 | 92 | 220 | 4.0 | 14.0 | 0.00 | 0.00 | 0.00 | 23 | 1012.4 |
| 20260831213824 | 92 | 227 | 7.0 | 14.0 | 0.00 | 0.00 | 0.00 | 22 | 1012.4 |
| 20260831213314 | 92 | 308 | 5.0 | 11.0 | 0.00 | 0.00 | 0.00 | 22 | 1012.5 |
| 20260831212825 | 92 | 314 | 3.0 | 12.0 | 0.00 | 0.00 | 0.00 | 22 | 1012.5 |
| 20260831212336 | 92 | 255 | 4.0 | 11.0 | 0.00 | 0.00 | 0.00 | 22 | 1012.5 |
| 20260831211826 | 92 | 281 | 4.0 | 14.0 | 0.00 | 0.00 | 0.00 | 22 | 1012.7 |
| 20260831211335 | 92 | 257 | 4.0 | 14.0 | 0.00 | 0.00 | 0.00 | 20 | 1012.7 |
| 20260831210825 | 92 | 259 | 5.0 | 11.0 | 0.00 | 0.00 | 0.00 | 21 | 1012.7 |
| 20260831210317 | 92 | 271 | 4.0 | 12.0 | 0.00 | 0.00 | 0.00 | 19 | 1012.8 |
| 20260831205812 | 92 | 235 | 6.0 | 12.0 | 0.00 | 0.00 | 0.00 | 19 | 1012.8 |
| 20260831205324 | 93 | 278 | 6.0 | 11.0 | 0.00 | 0.00 | 0.00 | 18 | 1012.8 |
| 20260831204835 | 92 | 242 | 3.0 | 7.0 | 0.00 | 0.00 | 0.00 | 16 | 1012.8 |
| 20260831204326 | 92 | 293 | 3.0 | 6.0 | 0.00 | 0.00 | 0.00 | 16 | 1013.0 |
| 20260831203816 | 92 | 260 | 3.0 | 9.0 | 0.00 | 0.00 | 0.00 | 16 | 1013.0 |
| 20260831203328 | 92 | 250 | 3.0 | 11.0 | 0.00 | 0.00 | 0.00 | 17 | 1013.0 |
| 20260831202819 | 93 | 212 | 6.0 | 11.0 | 0.00 | 0.00 | 0.00 | 17 | 1012.9 |
| 20260831202330 | 92 | 155 | 2.0 | 8.0 | 0.00 | 0.00 | 0.00 | 19 | 1012.8 |
| 20260831201821 | 92 | 185 | 1.0 | 8.0 | 0.00 | 0.00 | 0.00 | 18 | 1012.8 |
| 20260831201313 | 91 | 228 | 4.0 | 11.0 | 0.00 | 0.00 | 0.00 | 17 | 1012.9 |
| 20260831200827 | 91 | 226 | 3.0 | 11.0 | 0.00 | 0.00 | 0.00 | 18 | 1012.9 |
| 20260831200319 | 91 | 226 | 6.0 | 11.0 | 0.00 | 0.00 | 0.00 | 19 | 1013.1 |
| 20260831195830 | 92 | 235 | 2.0 | 10.0 | 0.00 | 0.00 | 0.00 | 22 | 1013.0 |
| 20260831195323 | 91 | 226 | 3.0 | 8.0 | 0.00 | 0.00 | 0.00 | 22 | 1013.1 |
| 20260831194813 | 91 | 250 | 4.0 | 7.0 | 0.00 | 0.00 | 0.00 | 22 | 1013.0 |
| 20260831194325 | 90 | 225 | 3.0 | 10.0 | 0.00 | 0.00 | 0.00 | 22 | 1013.1 |
| 20260831193815 | 90 | 203 | 3.0 | 10.0 | 0.00 | 0.00 | 0.00 | 18 | 1013.2 |
| 20260831193327 | 90 | 261 | 1.0 | 8.0 | 0.00 | 0.00 | 0.00 | 20 | 1013.1 |
| 20260831192822 | 89 | 225 | 2.0 | 8.0 | 0.00 | 0.00 | 0.00 | 22 | 1013.2 |
| 20260831192335 | 89 | 288 | 3.0 | 9.0 | 0.00 | 0.00 | 0.00 | 24 | 1013.3 |
| 20260831191845 | 90 | 257 | 4.0 | 6.0 | 0.00 | 0.00 | 0.00 | 24 | 1013.2 |
| 20260831191316 | 89 | 209 | 2.0 | 8.0 | 0.00 | 0.00 | 0.00 | 25 | 1013.4 |
| 20260831190827 | 89 | 264 | 4.0 | 8.0 | 0.00 | 0.00 | 0.00 | 26 | 1013.5 |
| 20260831190320 | 89 | 243 | 2.0 | 8.0 | 0.00 | 0.00 | 0.00 | 27 | 1013.3 |
| 20260831185831 | 88 | 268 | 3.0 | 8.0 | 0.00 | 0.00 | 0.00 | 27 | 1013.4 |
| 20260831185343 | 88 | 248 | 1.0 | 10.0 | 0.00 | 0.00 | 0.00 | 28 | 1013.5 |
| 20260831184812 | 88 | 227 | 4.0 | 10.0 | 0.00 | 0.00 | 0.00 | 29 | 1013.7 |
| 20260831184324 | 88 | 210 | 1.0 | 6.0 | 0.00 | 0.00 | 0.00 | 31 | 1013.7 |
| 20260831183815 | 87 | 190 | 2.0 | 6.0 | 0.00 | 0.00 | 0.00 | 32 | 1013.8 |
| 20260831183347 | 86 | 84 | 2.0 | 6.0 | 0.00 | 0.00 | 0.00 | 30 | 1013.7 |
| 20260831182821 | 87 | 311 | 3.0 | 5.0 | 0.00 | 0.00 | 0.00 | 32 | 1013.7 |
| 20260831182331 | 86 | 248 | 2.0 | 5.0 | 0.00 | 0.00 | 0.00 | 29 | 1013.8 |
| 20260831181842 | 86 | 220 | 2.0 | 5.0 | 0.00 | 0.00 | 0.00 | 31 | 1013.8 |
| 20260831181311 | 85 | 248 | 1.0 | 5.0 | 0.00 | 0.00 | 0.00 | 37 | 1013.8 |
| 20260831180822 | 84 | 251 | 3.0 | 5.0 | 0.00 | 0.00 | 0.00 | 37 | 1013.8 |
| 20260831180314 | 84 | 249 | 2.0 | 7.0 | 0.00 | 0.00 | 0.00 | 35 | 1013.8 |
| 20260831175826 | 84 | 286 | 3.0 | 7.0 | 0.00 | 0.00 | 0.00 | 37 | 1013.9 |
| 20260831175318 | 84 | 203 | 3.0 | 7.0 | 0.00 | 0.00 | 0.00 | 35 | 1013.9 |
| 20260831174849 | 84 | 193 | 3.0 | 6.0 | 0.00 | 0.00 | 0.00 | 38 | 1013.9 |
| 20260831174319 | 84 | 195 | 2.0 | 4.0 | 0.00 | 0.00 | 0.00 | 40 | 1013.9 |
| 20260831173813 | 83 | 258 | 1.0 | 3.0 | 0.00 | 0.00 | 0.00 | 40 | 1013.9 |
| 20260831173324 | 82 | 142 | 2.0 | 4.0 | 0.00 | 0.00 | 0.00 | 42 | 1013.9 |
| 20260831172816 | 82 | 255 | 2.0 | 4.0 | 0.00 | 0.00 | 0.00 | 45 | 1013.9 |
| 20260831172328 | 81 | 245 | 1.0 | 5.0 | 0.00 | 0.00 | 0.00 | 46 | 1013.9 |
| 20260831171819 | 81 | 194 | 1.0 | 4.0 | 0.00 | 0.00 | 0.00 | 48 | 1013.9 |
| 20260831171329 | 80 | 234 | 1.0 | 4.0 | 0.00 | 0.00 | 0.00 | 48 | 1013.9 |
| 20260831170820 | 79 | 34 | 0.0 | 4.0 | 0.00 | 0.00 | 0.00 | 52 | 1013.8 |
| 20260831170331 | 79 | 295 | 2.0 | 6.0 | 0.00 | 0.00 | 0.00 | 54 | 1013.7 |
| 20260831165824 | 78 | 325 | 2.0 | 6.0 | 0.00 | 0.00 | 0.00 | 55 | 1013.7 |
| 20260831165340 | 78 | 279 | 1.0 | 4.0 | 0.00 | 0.00 | 0.00 | 57 | 1013.7 |
| 20260831164811 | 77 | 296 | 1.0 | 4.0 | 0.00 | 0.00 | 0.00 | 58 | 1013.7 |
| 20260831164324 | 77 | 306 | 2.0 | 4.0 | 0.00 | 0.00 | 0.00 | 59 | 1013.7 |
| 20260831163835 | 77 | 300 | 0.0 | 4.0 | 0.00 | 0.00 | 0.00 | 60 | 1013.8 |
| 20260831163344 | 76 | 45 | 1.0 | 4.0 | 0.00 | 0.00 | 0.00 | 61 | 1013.7 |
| 20260831162814 | 75 | 307 | 0.0 | 3.0 | 0.00 | 0.00 | 0.00 | 62 | 1013.7 |
| 20260831162325 | 75 | 306 | 1.0 | 4.0 | 0.00 | 0.00 | 0.00 | 62 | 1013.7 |
| 20260831161836 | 75 | 325 | 1.0 | 5.0 | 0.00 | 0.00 | 0.00 | 62 | 1013.7 |
| 20260831161326 | 74 | 300 | 3.0 | 5.0 | 0.00 | 0.00 | 0.00 | 62 | 1013.8 |
| 20260831160817 | 74 | 282 | 0.0 | 4.0 | 0.00 | 0.00 | 0.00 | 60 | 1013.7 |
| 20260831160349 | 74 | 302 | 2.0 | 4.0 | 0.00 | 0.00 | 0.00 | 59 | 1013.7 |
| 20260831155840 | 73 | 338 | 1.0 | 4.0 | 0.00 | 0.00 | 0.00 | 59 | 1013.7 |
| 20260831155313 | 73 | 297 | 2.0 | 4.0 | 0.00 | 0.00 | 0.00 | 59 | 1013.7 |
| 20260831154824 | 73 | 25 | 1.0 | 5.0 | 0.00 | 0.00 | 0.00 | 61 | 1013.8 |
| 20260831154316 | 73 | 313 | 2.0 | 5.0 | 0.00 | 0.00 | 0.00 | 59 | 1013.8 |
| 20260831153828 | 73 | 312 | 2.0 | 4.0 | 0.00 | 0.00 | 0.00 | 57 | 1013.7 |
| 20260831153320 | 73 | 317 | 1.0 | 4.0 | 0.00 | 0.00 | 0.00 | 55 | 1013.8 |
| 20260831152831 | 73 | 285 | 0.0 | 2.0 | 0.00 | 0.00 | 0.00 | 51 | 1013.7 |
| 20260831152322 | 73 | 264 | 0.0 | 1.0 | 0.00 | 0.00 | 0.00 | 48 | 1013.6 |
| 20260831151813 | 73 | 241 | 0.0 | 0.0 | 0.00 | 0.00 | 0.00 | 51 | 1013.9 |
| 20260831151325 | 73 | 214 | 0.0 | 0.0 | 0.00 | 0.00 | 0.00 | 50 | 1013.5 |
| 20260831150821 | 73 | 198 | 0.0 | 0.0 | 0.00 | 0.00 | 0.00 | 50 | 1013.5 |
| 20260831150313 | 73 | 94 | 0.0 | 0.0 | 0.00 | 0.00 | 0.00 | 51 | 1013.5 |
| 20260831145826 | 72 | 94 | 0.0 | 0.0 | 0.00 | 0.00 | 0.00 | 54 | 1013.5 |
| 20260831145318 | 71 | 94 | 0.0 | 0.0 | 0.00 | 0.00 | 0.00 | 55 | 1013.5 |
| 20260831144829 | 72 | 94 | 0.0 | 0.0 | 0.00 | 0.00 | 0.00 | 53 | 1013.4 |
| 20260831144322 | 72 | 94 | 0.0 | 0.0 | 0.00 | 0.00 | 0.00 | 55 | 1013.5 |
| 20260831143813 | 70 | 94 | 0.0 | 0.0 | 0.00 | 0.00 | 0.00 | 58 | 1013.5 |
| 20260831143324 | 69 | 94 | 0.0 | 0.0 | 0.00 | 0.00 | 0.00 | 59 | 1013.4 |
| 20260831142815 | 67 | 94 | 0.0 | 0.0 | 0.00 | 0.00 | 0.00 | 62 | 1013.4 |
| 20260831142311 | 65 | 94 | 0.0 | 0.0 | 0.00 | 0.00 | 0.00 | 64 | 1013.3 |
| 20260831141823 | 64 | 94 | 0.0 | 0.0 | 0.00 | 0.00 | 0.00 | 63 | 1013.3 |
| 20260831141335 | 63 | 94 | 0.0 | 0.0 | 0.00 | 0.00 | 0.00 | 66 | 1013.3 |
| 20260831140845 | 61 | 94 | 0.0 | 0.0 | 0.00 | 0.00 | 0.00 | 67 | 1013.2 |
| 20260831140316 | 61 | 94 | 0.0 | 0.0 | 0.00 | 0.00 | 0.00 | 69 | 1013.2 |
| 20260831135828 | 61 | 94 | 0.0 | 0.0 | 0.00 | 0.00 | 0.00 | 69 | 1013.2 |
| 20260831135319 | 61 | 94 | 0.0 | 0.0 | 0.00 | 0.00 | 0.00 | 69 | 1013.1 |
| 20260831134851 | 61 | 94 | 0.0 | 0.0 | 0.00 | 0.00 | 0.00 | 68 | 1013.0 |
| 20260831134323 | 61 | 94 | 0.0 | 0.0 | 0.00 | 0.00 | 0.00 | 68 | 1013.0 |
| 20260831133814 | 61 | 94 | 0.0 | 0.0 | 0.00 | 0.00 | 0.00 | 69 | 1013.0 |
| 20260831133326 | 61 | 94 | 0.0 | 0.0 | 0.00 | 0.00 | 0.00 | 70 | 1013.0 |
| 20260831132820 | 61 | 94 | 0.0 | 0.0 | 0.00 | 0.00 | 0.00 | 70 | 1012.9 |
| 20260831132330 | 61 | 94 | 0.0 | 0.0 | 0.00 | 0.00 | 0.00 | 69 | 1012.9 |
| 20260831131841 | 61 | 94 | 0.0 | 0.0 | 0.00 | 0.00 | 0.00 | 69 | 1012.8 |
| 20260831131330 | 61 | 94 | 0.0 | 0.0 | 0.00 | 0.00 | 0.00 | 69 | 1012.9 |
| 20260831130822 | 61 | 94 | 0.0 | 0.0 | 0.00 | 0.00 | 0.00 | 70 | 1012.9 |
| 20260831130333 | 61 | 94 | 0.0 | 0.0 | 0.00 | 0.00 | 0.00 | 71 | 1012.8 |
| 20260831125823 | 61 | 94 | 0.0 | 0.0 | 0.00 | 0.00 | 0.00 | 71 | 1012.9 |
| 20260831125314 | 61 | 94 | 0.0 | 0.0 | 0.00 | 0.00 | 0.00 | 70 | 1013.0 |
| 20260831124825 | 61 | 94 | 0.0 | 0.0 | 0.00 | 0.00 | 0.00 | 70 | 1012.8 |
| 20260831124316 | 62 | 94 | 0.0 | 0.0 | 0.00 | 0.00 | 0.00 | 70 | 1012.7 |
| 20260831123811 | 62 | 94 | 0.0 | 0.0 | 0.00 | 0.00 | 0.00 | 70 | 1012.7 |
| 20260831123323 | 62 | 94 | 0.0 | 0.0 | 0.00 | 0.00 | 0.00 | 68 | 1012.7 |
| 20260831122815 | 62 | 94 | 0.0 | 0.0 | 0.00 | 0.00 | 0.00 | 68 | 1012.8 |
| 20260831122326 | 62 | 94 | 0.0 | 0.0 | 0.00 | 0.00 | 0.00 | 68 | 1012.7 |
| 20260831121819 | 62 | 94 | 0.0 | 0.0 | 0.00 | 0.00 | 0.00 | 67 | 1012.8 |
| 20260831121330 | 62 | 94 | 0.0 | 0.0 | 0.00 | 0.00 | 0.00 | 67 | 1012.7 |
| 20260831120820 | 62 | 94 | 0.0 | 0.0 | 0.00 | 0.00 | 0.00 | 67 | 1012.8 |
| 20260831120313 | 62 | 94 | 0.0 | 0.0 | 0.00 | 0.00 | 0.00 | 66 | 1012.7 |
| 20260831115824 | 62 | 94 | 0.0 | 0.0 | 0.00 | 0.00 | 0.00 | 66 | 1012.8 |
| 20260831115338 | 62 | 94 | 0.0 | 0.0 | 0.00 | 0.00 | 0.00 | 66 | 1012.8 |
| 20260831114828 | 63 | 94 | 0.0 | 0.0 | 0.00 | 0.00 | 0.00 | 67 | 1012.8 |
| 20260831114320 | 63 | 94 | 0.0 | 0.0 | 0.00 | 0.00 | 0.00 | 67 | 1012.8 |
| 20260831113831 | 62 | 94 | 0.0 | 0.0 | 0.00 | 0.00 | 0.00 | 66 | 1012.8 |
| 20260831113341 | 63 | 94 | 0.0 | 0.0 | 0.00 | 0.00 | 0.00 | 66 | 1012.7 |
| 20260831112831 | 63 | 94 | 0.0 | 0.0 | 0.00 | 0.00 | 0.00 | 66 | 1012.7 |
| 20260831112322 | 63 | 94 | 0.0 | 0.0 | 0.00 | 0.00 | 0.00 | 66 | 1012.7 |
| 20260831111815 | 63 | 94 | 0.0 | 0.0 | 0.00 | 0.00 | 0.00 | 66 | 1012.7 |
| 20260831111326 | 63 | 94 | 0.0 | 0.0 | 0.00 | 0.00 | 0.00 | 66 | 1012.7 |
| 20260831110822 | 63 | 94 | 0.0 | 0.0 | 0.00 | 0.00 | 0.00 | 66 | 1012.7 |
| 20260831110314 | 63 | 94 | 0.0 | 0.0 | 0.00 | 0.00 | 0.00 | 66 | 1012.7 |
| 20260831105824 | 63 | 94 | 0.0 | 0.0 | 0.00 | 0.00 | 0.00 | 66 | 1012.8 |
| 20260831105315 | 63 | 94 | 0.0 | 0.0 | 0.00 | 0.00 | 0.00 | 64 | 1012.8 |
| 20260831104826 | 64 | 94 | 0.0 | 0.0 | 0.00 | 0.00 | 0.00 | 64 | 1012.8 |
| 20260831104316 | 64 | 94 | 0.0 | 0.0 | 0.00 | 0.00 | 0.00 | 62 | 1012.8 |
| 20260831103828 | 64 | 94 | 0.0 | 0.0 | 0.00 | 0.00 | 0.00 | 61 | 1012.8 |
| 20260831103340 | 64 | 94 | 0.0 | 0.0 | 0.00 | 0.00 | 0.00 | 62 | 1012.7 |
| 20260831102830 | 64 | 94 | 0.0 | 0.0 | 0.00 | 0.00 | 0.00 | 61 | 1012.6 |
| 20260831102339 | 64 | 94 | 0.0 | 0.0 | 0.00 | 0.00 | 0.00 | 60 | 1012.6 |
| 20260831101812 | 64 | 94 | 0.0 | 0.0 | 0.00 | 0.00 | 0.00 | 61 | 1012.6 |
| 20260831101324 | 64 | 94 | 0.0 | 0.0 | 0.00 | 0.00 | 0.00 | 61 | 1012.6 |
| 20260831100814 | 65 | 94 | 0.0 | 0.0 | 0.00 | 0.00 | 0.00 | 62 | 1012.6 |
| 20260831100325 | 65 | 94 | 0.0 | 0.0 | 0.00 | 0.00 | 0.00 | 62 | 1012.6 |
| 20260831095816 | 65 | 94 | 0.0 | 0.0 | 0.00 | 0.00 | 0.00 | 62 | 1012.6 |
| 20260831095328 | 65 | 94 | 0.0 | 0.0 | 0.00 | 0.00 | 0.00 | 61 | 1012.7 |
| 20260831094819 | 65 | 94 | 0.0 | 0.0 | 0.00 | 0.00 | 0.00 | 61 | 1012.6 |
| 20260831094331 | 65 | 94 | 0.0 | 0.0 | 0.00 | 0.00 | 0.00 | 60 | 1012.7 |
| 20260831093822 | 65 | 94 | 0.0 | 0.0 | 0.00 | 0.00 | 0.00 | 60 | 1012.6 |
| 20260831093318 | 66 | 94 | 0.0 | 0.0 | 0.00 | 0.00 | 0.00 | 60 | 1012.6 |
| 20260831092849 | 66 | 94 | 0.0 | 0.0 | 0.00 | 0.00 | 0.00 | 60 | 1012.5 |
| 20260831092319 | 66 | 94 | 0.0 | 0.0 | 0.00 | 0.00 | 0.00 | 59 | 1012.6 |
| 20260831091830 | 66 | 94 | 0.0 | 0.0 | 0.00 | 0.00 | 0.00 | 58 | 1012.5 |
| 20260831091321 | 66 | 94 | 0.0 | 0.0 | 0.00 | 0.00 | 0.00 | 57 | 1012.5 |
| 20260831090852 | 66 | 94 | 0.0 | 0.0 | 0.00 | 0.00 | 0.00 | 57 | 1012.5 |
| 20260831090323 | 66 | 94 | 0.0 | 0.0 | 0.00 | 0.00 | 0.00 | 55 | 1012.5 |
| 20260831085813 | 66 | 94 | 0.0 | 0.0 | 0.00 | 0.00 | 0.00 | 54 | 1012.5 |
| 20260831085325 | 67 | 94 | 0.0 | 0.0 | 0.00 | 0.00 | 0.00 | 54 | 1012.6 |
| 20260831084836 | 67 | 94 | 0.0 | 0.0 | 0.00 | 0.00 | 0.00 | 53 | 1012.7 |
| 20260831084326 | 67 | 94 | 0.0 | 0.0 | 0.00 | 0.00 | 0.00 | 53 | 1012.7 |
| 20260831083821 | 67 | 94 | 0.0 | 0.0 | 0.00 | 0.00 | 0.00 | 54 | 1012.7 |
| 20260831083333 | 67 | 94 | 0.0 | 0.0 | 0.00 | 0.00 | 0.00 | 55 | 1012.8 |
| 20260831082823 | 67 | 94 | 0.0 | 0.0 | 0.00 | 0.00 | 0.00 | 57 | 1012.8 |
| 20260831082314 | 68 | 94 | 0.0 | 0.0 | 0.00 | 0.00 | 0.00 | 59 | 1012.9 |
| 20260831081846 | 68 | 94 | 0.0 | 0.0 | 0.00 | 0.00 | 0.00 | 59 | 1013.0 |
| 20260831081317 | 68 | 94 | 0.0 | 0.0 | 0.00 | 0.00 | 0.00 | 59 | 1013.0 |
| 20260831080829 | 68 | 94 | 0.0 | 0.0 | 0.00 | 0.00 | 0.00 | 60 | 1013.1 |
| 20260831080320 | 68 | 94 | 0.0 | 0.0 | 0.00 | 0.00 | 0.00 | 59 | 1013.1 |
| 20260831075812 | 68 | 94 | 0.0 | 0.0 | 0.00 | 0.00 | 0.00 | 59 | 1013.1 |
| 20260831075327 | 69 | 94 | 0.0 | 0.0 | 0.00 | 0.00 | 0.00 | 59 | 1013.1 |
| 20260831074819 | 69 | 94 | 0.0 | 0.0 | 0.00 | 0.00 | 0.00 | 58 | 1013.1 |
| 20260831074351 | 69 | 94 | 0.0 | 0.0 | 0.00 | 0.00 | 0.00 | 58 | 1013.0 |
| 20260831073820 | 69 | 94 | 0.0 | 0.0 | 0.00 | 0.00 | 0.00 | 58 | 1013.0 |
| 20260831073312 | 69 | 94 | 0.0 | 0.0 | 0.00 | 0.00 | 0.00 | 57 | 1013.1 |
| 20260831072823 | 69 | 94 | 0.0 | 0.0 | 0.00 | 0.00 | 0.00 | 57 | 1013.0 |
| 20260831072315 | 69 | 94 | 0.0 | 0.0 | 0.00 | 0.00 | 0.00 | 57 | 1013.0 |
| 20260831071826 | 69 | 94 | 0.0 | 0.0 | 0.00 | 0.00 | 0.00 | 56 | 1013.0 |
| 20260831071317 | 70 | 94 | 0.0 | 0.0 | 0.00 | 0.00 | 0.00 | 56 | 1013.0 |
| 20260831070811 | 70 | 94 | 0.0 | 0.0 | 0.00 | 0.00 | 0.00 | 56 | 1013.1 |
| 20260831070323 | 70 | 94 | 0.0 | 0.0 | 0.00 | 0.00 | 0.00 | 57 | 1013.0 |
| 20260831065815 | 70 | 94 | 0.0 | 0.0 | 0.00 | 0.00 | 0.00 | 58 | 1013.0 |
| 20260831065326 | 70 | 94 | 0.0 | 0.0 | 0.00 | 0.00 | 0.00 | 58 | 1013.0 |
| 20260831064816 | 71 | 94 | 0.0 | 0.0 | 0.00 | 0.00 | 0.00 | 58 | 1013.0 |
| 20260831064328 | 71 | 94 | 0.0 | 0.0 | 0.00 | 0.00 | 0.00 | 59 | 1013.0 |
| 20260831063819 | 71 | 94 | 0.0 | 0.0 | 0.00 | 0.00 | 0.00 | 59 | 1013.0 |
| 20260831063330 | 71 | 94 | 0.0 | 0.0 | 0.00 | 0.00 | 0.00 | 60 | 1012.9 |
| 20260831062822 | 71 | 94 | 0.0 | 0.0 | 0.00 | 0.00 | 0.00 | 62 | 1013.0 |
| 20260831062317 | 72 | 94 | 0.0 | 0.0 | 0.00 | 0.00 | 0.00 | 65 | 1012.9 |
| 20260831061827 | 72 | 94 | 0.0 | 0.0 | 0.00 | 0.00 | 0.00 | 67 | 1012.9 |
| 20260831061318 | 72 | 314 | 0.0 | 0.0 | 0.00 | 0.00 | 0.00 | 69 | 1012.8 |
| 20260831060831 | 72 | 314 | 0.0 | 0.0 | 0.00 | 0.00 | 0.00 | 68 | 1012.8 |
| 20260831060321 | 72 | 314 | 0.0 | 0.0 | 0.00 | 0.00 | 0.00 | 67 | 1012.8 |
| 20260831055811 | 73 | 314 | 0.0 | 0.0 | 0.00 | 0.00 | 0.00 | 66 | 1012.8 |
| 20260831055322 | 73 | 314 | 0.0 | 0.0 | 0.00 | 0.00 | 0.00 | 65 | 1012.8 |
| 20260831054833 | 73 | 314 | 0.0 | 0.0 | 0.00 | 0.00 | 0.00 | 65 | 1012.8 |
| 20260831054324 | 74 | 314 | 0.0 | 0.0 | 0.00 | 0.00 | 0.00 | 64 | 1012.8 |
| 20260831053819 | 74 | 314 | 0.0 | 0.0 | 0.00 | 0.00 | 0.00 | 62 | 1012.8 |
| 20260831053352 | 74 | 314 | 0.0 | 0.0 | 0.00 | 0.00 | 0.00 | 62 | 1012.7 |
| 20260831052843 | 74 | 314 | 0.0 | 0.0 | 0.00 | 0.00 | 0.00 | 61 | 1012.7 |
| 20260831052334 | 75 | 314 | 0.0 | 0.0 | 0.00 | 0.00 | 0.00 | 60 | 1012.7 |
| 20260831051825 | 75 | 314 | 0.0 | 0.0 | 0.00 | 0.00 | 0.00 | 59 | 1012.6 |
| 20260831051336 | 76 | 314 | 0.0 | 0.0 | 0.00 | 0.00 | 0.00 | 58 | 1012.6 |
| 20260831050825 | 76 | 314 | 0.0 | 0.0 | 0.00 | 0.00 | 0.00 | 56 | 1012.6 |
| 20260831050317 | 76 | 314 | 0.0 | 1.0 | 0.00 | 0.00 | 0.00 | 56 | 1012.6 |
| 20260831045829 | 76 | 314 | 0.0 | 2.0 | 0.00 | 0.00 | 0.00 | 56 | 1012.5 |
| 20260831045340 | 77 | 314 | 0.0 | 2.0 | 0.00 | 0.00 | 0.00 | 54 | 1012.4 |
| 20260831044851 | 77 | 288 | 0.0 | 0.0 | 0.00 | 0.00 | 0.00 | 53 | 1012.4 |
| 20260831044323 | 78 | 275 | 0.0 | 0.0 | 0.00 | 0.00 | 0.00 | 50 | 1012.3 |
| 20260831043835 | 78 | 275 | 0.0 | 0.0 | 0.00 | 0.00 | 0.00 | 48 | 1012.3 |
| 20260831043345 | 79 | 269 | 0.0 | 2.0 | 0.00 | 0.00 | 0.00 | 45 | 1012.3 |
| 20260831042814 | 79 | 269 | 0.0 | 2.0 | 0.00 | 0.00 | 0.00 | 45 | 1012.3 |
| 20260831042331 | 79 | 276 | 0.0 | 2.0 | 0.00 | 0.00 | 0.00 | 44 | 1012.2 |
| 20260831041821 | 80 | 274 | 1.0 | 3.0 | 0.00 | 0.00 | 0.00 | 44 | 1012.1 |
| 20260831041312 | 80 | 236 | 0.0 | 0.0 | 0.00 | 0.00 | 0.00 | 43 | 1012.1 |
| 20260831040825 | 80 | 280 | 0.0 | 0.0 | 0.00 | 0.00 | 0.00 | 43 | 1012.0 |
| 20260831040335 | 81 | 268 | 0.0 | 0.0 | 0.00 | 0.00 | 0.00 | 42 | 1012.0 |
| 20260831035826 | 81 | 268 | 0.0 | 0.0 | 0.00 | 0.00 | 0.00 | 41 | 1012.0 |
| 20260831035338 | 81 | 272 | 0.0 | 0.0 | 0.00 | 0.00 | 0.00 | 41 | 1011.9 |
| 20260831034829 | 81 | 240 | 0.0 | 4.0 | 0.00 | 0.00 | 0.00 | 40 | 1011.7 |
| 20260831034320 | 82 | 221 | 0.0 | 4.0 | 0.00 | 0.00 | 0.00 | 39 | 1011.7 |
| 20260831033833 | 82 | 226 | 1.0 | 5.0 | 0.00 | 0.00 | 0.00 | 38 | 1011.6 |
| 20260831033328 | 82 | 229 | 1.0 | 5.0 | 0.00 | 0.00 | 0.00 | 38 | 1011.6 |
| 20260831032820 | 82 | 217 | 1.0 | 4.0 | 0.00 | 0.00 | 0.00 | 37 | 1011.6 |
| 20260831032331 | 82 | 222 | 3.0 | 4.0 | 0.00 | 0.00 | 0.00 | 37 | 1011.5 |
| 20260831031821 | 82 | 219 | 3.0 | 4.0 | 0.00 | 0.00 | 0.00 | 37 | 1011.4 |
| 20260831031332 | 83 | 227 | 2.0 | 6.0 | 0.00 | 0.00 | 0.00 | 37 | 1011.3 |
| 20260831030823 | 83 | 228 | 2.0 | 6.0 | 0.00 | 0.00 | 0.00 | 36 | 1011.3 |
| 20260831030314 | 83 | 221 | 1.0 | 4.0 | 0.00 | 0.00 | 0.00 | 36 | 1011.3 |
| 20260831025826 | 83 | 215 | 2.0 | 4.0 | 0.00 | 0.00 | 0.00 | 35 | 1011.3 |
| 20260831025316 | 83 | 215 | 0.0 | 4.0 | 0.00 | 0.00 | 0.00 | 35 | 1011.3 |
| 20260831024812 | 84 | 214 | 0.0 | 5.0 | 0.00 | 0.00 | 0.00 | 35 | 1011.2 |
| 20260831024324 | 84 | 243 | 1.0 | 5.0 | 0.00 | 0.00 | 0.00 | 35 | 1011.1 |
| 20260831023815 | 84 | 226 | 2.0 | 4.0 | 0.00 | 0.00 | 0.00 | 34 | 1011.2 |
| 20260831023326 | 84 | 263 | 0.0 | 4.0 | 0.00 | 0.00 | 0.00 | 34 | 1011.2 |
| 20260831022818 | 84 | 266 | 0.0 | 4.0 | 0.00 | 0.00 | 0.00 | 34 | 1011.2 |
| 20260831022330 | 85 | 227 | 0.0 | 4.0 | 0.00 | 0.00 | 0.00 | 33 | 1011.1 |
| 20260831021821 | 85 | 232 | 2.0 | 5.0 | 0.00 | 0.00 | 0.00 | 33 | 1011.0 |
| 20260831021312 | 86 | 202 | 2.0 | 5.0 | 0.00 | 0.00 | 0.00 | 33 | 1011.1 |
| 20260831020844 | 86 | 193 | 0.0 | 5.0 | 0.00 | 0.00 | 0.00 | 33 | 1011.0 |
| 20260831020318 | 86 | 209 | 2.0 | 7.0 | 0.00 | 0.00 | 0.00 | 33 | 1010.9 |
| 20260831015849 | 87 | 246 | 2.0 | 7.0 | 0.00 | 0.00 | 0.00 | 33 | 1010.9 |
| 20260831015320 | 87 | 230 | 2.0 | 8.0 | 0.00 | 0.00 | 0.00 | 34 | 1010.8 |
| 20260831014811 | 87 | 231 | 4.0 | 8.0 | 0.00 | 0.00 | 0.00 | 34 | 1010.8 |
| 20260831014342 | 87 | 165 | 2.0 | 10.0 | 0.00 | 0.00 | 0.00 | 34 | 1010.7 |
| 20260831013812 | 87 | 230 | 5.0 | 10.0 | 0.00 | 0.00 | 0.00 | 34 | 1010.7 |
| 20260831013324 | 88 | 235 | 2.0 | 10.0 | 0.00 | 0.00 | 0.00 | 34 | 1010.7 |
| 20260831012817 | 88 | 210 | 6.0 | 10.0 | 0.00 | 0.00 | 0.00 | 33 | 1010.7 |
| 20260831012328 | 89 | 203 | 4.0 | 10.0 | 0.00 | 0.00 | 0.00 | 32 | 1010.9 |
| 20260831011819 | 89 | 237 | 3.0 | 13.0 | 0.00 | 0.00 | 0.00 | 32 | 1010.9 |
| 20260831011315 | 90 | 228 | 6.0 | 13.0 | 0.00 | 0.00 | 0.00 | 31 | 1011.0 |
| 20260831010828 | 90 | 212 | 5.0 | 12.0 | 0.00 | 0.00 | 0.00 | 30 | 1010.9 |
| 20260831010320 | 91 | 231 | 3.0 | 10.0 | 0.00 | 0.00 | 0.00 | 31 | 1010.9 |
| 20260831005812 | 91 | 217 | 4.0 | 10.0 | 0.00 | 0.00 | 0.00 | 30 | 1010.8 |
| 20260831005324 | 91 | 220 | 4.0 | 10.0 | 0.00 | 0.00 | 0.00 | 30 | 1010.7 |
| 20260831004815 | 91 | 171 | 4.0 | 11.0 | 0.00 | 0.00 | 0.00 | 31 | 1010.7 |
| 20260831004326 | 91 | 238 | 5.0 | 12.0 | 0.00 | 0.00 | 0.00 | 31 | 1010.7 |
| 20260831003817 | 91 | 226 | 6.0 | 12.0 | 0.00 | 0.00 | 0.00 | 30 | 1010.6 |
| 20260831003313 | 92 | 217 | 6.0 | 13.0 | 0.00 | 0.00 | 0.00 | 30 | 1010.6 |
| 20260831002844 | 92 | 259 | 8.0 | 13.0 | 0.00 | 0.00 | 0.00 | 30 | 1010.7 |
| 20260831002314 | 93 | 286 | 4.0 | 13.0 | 0.00 | 0.00 | 0.00 | 29 | 1010.7 |
| 20260831001846 | 92 | 185 | 4.0 | 13.0 | 0.00 | 0.00 | 0.00 | 29 | 1010.7 |
| 20260831001318 | 93 | 241 | 5.0 | 12.0 | 0.00 | 0.00 | 0.00 | 28 | 1010.6 |
| 20260831000850 | 93 | 208 | 5.0 | 12.0 | 0.00 | 0.00 | 0.00 | 28 | 1010.6 |
| 20260831000341 | 94 | 176 | 6.0 | 14.0 | 0.00 | 0.00 | 0.00 | 27 | 1010.5 |
| 20260830235812 | 94 | 183 | 6.0 | 14.0 | 0.00 | 0.00 | 0.00 | 27 | 1010.6 |
| 20260830235344 | 94 | 196 | 4.0 | 14.0 | 0.00 | 0.00 | 0.00 | 27 | 1010.6 |
| 20260830234816 | 94 | 209 | 8.0 | 14.0 | 0.00 | 0.00 | 0.00 | 28 | 1010.5 |
| 20260830234327 | 94 | 205 | 6.0 | 12.0 | 0.00 | 0.00 | 0.00 | 27 | 1010.5 |
| 20260830233839 | 94 | 198 | 6.0 | 13.0 | 0.00 | 0.00 | 0.00 | 28 | 1010.5 |
| 20260830233328 | 94 | 231 | 8.0 | 13.0 | 0.00 | 0.00 | 0.00 | 27 | 1010.5 |
| 20260830232823 | 94 | 211 | 5.0 | 14.0 | 0.00 | 0.00 | 0.00 | 27 | 1010.5 |
| 20260830232314 | 94 | 231 | 9.0 | 14.0 | 0.00 | 0.00 | 0.00 | 27 | 1010.4 |
| 20260830231827 | 95 | 190 | 8.0 | 14.0 | 0.00 | 0.00 | 0.00 | 28 | 1010.4 |
| 20260830231317 | 95 | 199 | 7.0 | 14.0 | 0.00 | 0.00 | 0.00 | 27 | 1010.4 |
| 20260830230828 | 95 | 214 | 4.0 | 14.0 | 0.00 | 0.00 | 0.00 | 29 | 1010.4 |
| 20260830230318 | 95 | 179 | 5.0 | 16.0 | 0.00 | 0.00 | 0.00 | 28 | 1010.4 |
| 20260830225811 | 95 | 218 | 7.0 | 16.0 | 0.00 | 0.00 | 0.00 | 28 | 1010.4 |
| 20260830225323 | 95 | 202 | 8.0 | 12.0 | 0.00 | 0.00 | 0.00 | 28 | 1010.5 |
| 20260830224814 | 96 | 210 | 4.0 | 11.0 | 0.00 | 0.00 | 0.00 | 28 | 1010.5 |
| 20260830224346 | 96 | 231 | 3.0 | 14.0 | 0.00 | 0.00 | 0.00 | 28 | 1010.4 |
| 20260830223821 | 96 | 206 | 6.0 | 12.0 | 0.00 | 0.00 | 0.00 | 26 | 1010.5 |
| 20260830223313 | 95 | 206 | 4.0 | 10.0 | 0.00 | 0.00 | 0.00 | 26 | 1010.5 |
| 20260830222824 | 95 | 211 | 4.0 | 11.0 | 0.00 | 0.00 | 0.00 | 27 | 1010.6 |
| 20260830222315 | 96 | 224 | 5.0 | 11.0 | 0.00 | 0.00 | 0.00 | 27 | 1010.7 |
| 20260830221825 | 95 | 264 | 6.0 | 12.0 | 0.00 | 0.00 | 0.00 | 27 | 1010.7 |
| 20260830221315 | 96 | 226 | 5.0 | 13.0 | 0.00 | 0.00 | 0.00 | 27 | 1010.7 |
| 20260830220846 | 96 | 250 | 3.0 | 13.0 | 0.00 | 0.00 | 0.00 | 27 | 1011.0 |
| 20260830220318 | 96 | 253 | 4.0 | 13.0 | 0.00 | 0.00 | 0.00 | 26 | 1011.0 |
| 20260830215829 | 96 | 207 | 4.0 | 9.0 | 0.00 | 0.00 | 0.00 | 26 | 1011.0 |